ZHONGXING-3A

Last updated on Sun Jun 21 2026 00:03:09 GMT+0000 (Coordinated Universal Time)

1 60179U 24122A 26171.59014024 -.00000318 00000+0 00000+0 0 9997 2 60179 0.0402 113.7747 0001215 9.0664 99.9844 1.00272426 7346
UTC large
Height (km)
Speed (km/s)
/
Latitude / Longitude
Inclination (degrees)
Orbital Period (minutes)
Azimuth
Elevation
Range (km)
Doppler Factor

Next 0 passes for location: London (51.5072 / 0.1276)

No passes found over London.
ZHONGXING-3A